Flag for U.S.A. Weather past 2 weeks in Lawrence, Kansas, U.S.A.

Now
56 °F

Light rain. Mostly cloudy.


Feels Like: 53 °F
Forecast: 49 / 65 °F
Wind: 12 mph from Southeast

Location: Lawrence Municipal Airport

Current Time: Apr 25, 2015 at 4:27:02 AM

Latest Report: Apr 25, 2015 at 3:52 AM


Visibility: 9 mi

Pressure: 29.40 "Hg

Humidity: 90%

Dew point: 53 °F

Location of LawrenceLocation

Historic Weather in Lawrence — Graph

°F

Lawrence temperature yesterday

Maximum temperature yesterday: 64 °F (at 6:52 PM)
Minimum temperature yesterday: 55 °F (at 5:52 AM)
Average temperature yesterday: 59 °F

Past Weeks' High & Low Weather Summary

 TemperatureHumidityPressure
High77 °F (Apr 16, 3:52 PM)97% (Apr 17, 3:52 AM)30.26 "Hg (Apr 17, 3:52 AM)
Low33 °F (Apr 10, 6:52 AM)21% (Apr 10, 4:52 PM)29.44 "Hg (Apr 25, 2:52 AM)
Average57 °F65%29.96 "Hg
* Reported Apr 10 2:52 AM — Apr 25 2:52 AM, Lawrence, Weather by CustomWeather, © 2015

Note: Actual official high and low records may vary slightly from our data, if they occured in-between our weather recording intervals... More about our weather records

Advertising

Lawrence weather history for previous 24 hours

 ConditionsComfort  
Time TempWeatherWind HumidityBarometerVisibility
2:52 AM
Sat, Apr 25
57 °FLight rain. Overcast.8 mph96%29.44 "Hg9 mi
1:59 AM59 °FThundershowers. Overcast.15 mph87%29.45 "Hg8 mi
12:52 AM60 °FMostly cloudy.17 mph83%29.49 "Hg10 mi
11:52 PM
Fri, Apr 24
61 °FThundershowers. Mostly cloudy.16 mph87%29.50 "Hg8 mi
10:52 PM62 °FOvercast.10 mph83%29.52 "Hg10 mi
9:52 PM63 °FOvercast.8 mph78%29.56 "Hg10 mi
8:52 PM64 °FOvercast.10 mph75%29.53 "Hg10 mi
7:52 PM64 °FOvercast.14 mph75%29.54 "Hg10 mi
6:52 PM64 °FCloudy.10 mph73%29.56 "Hg10 mi
5:52 PM63 °FOvercast.12 mph73%29.60 "Hg10 mi
4:52 PM62 °FMore clouds than sun.12 mph73%29.64 "Hg10 mi
3:52 PM61 °FMostly cloudy.15 mph75%29.66 "Hg10 mi
2:52 PM59 °FOvercast.13 mph78%29.69 "Hg8 mi
1:52 PM58 °FOvercast.12 mph78%29.72 "Hg10 mi
12:52 PM57 °FOvercast.15 mph81%29.75 "Hg10 mi
11:52 AM58 °FOvercast.17 mph75%29.77 "Hg10 mi
10:52 AM58 °FOvercast.17 mph67%29.78 "Hg10 mi
9:52 AM57 °FOvercast.17 mph67%29.78 "Hg10 mi
8:52 AM55 °FMostly cloudy.21 mph69%29.81 "Hg10 mi
7:52 AM55 °FOvercast.9 mph69%29.84 "Hg10 mi
6:52 AM56 °FOvercast.6 mph60%29.84 "Hg10 mi
5:52 AM55 °FMostly cloudy.12 mph62%29.84 "Hg10 mi
4:52 AM56 °FOvercast.13 mph58%29.85 "Hg10 mi
Weather by CustomWeather, © 2015

See weather overviewHow to use our weather pages